Madison, WI

5:51 AM CDT on June 26, 2017 (GMT -0500)
Dane County Regional-Truax

Weather History for KMSN - February, 2014

Change the Weather History Date:

Tuesday, February 4, 2014

  Actual Average Record
Temperature  
Mean Temperature 9 °F 20 °F  
Max Temperature 18 °F 28 °F 55 °F (1890)
Min Temperature -1 °F 12 °F -23 °F (1965)
Degree Days  
Heating Degree Days 56 45  
Month to date heating degree days 230 180  
Since 1 July heating degree days 4872 4493  
Cooling Degree Days 0 0  
Month to date cooling degree days 0 0  
Year to date cooling degree days 0 0  
Moisture  
Dew Point 5 °F    
Average Humidity 78    
Maximum Humidity 95    
Minimum Humidity 61    
Precipitation  
Precipitation T in 0.04 in 1.47 in (1986)
Month to date precipitation 0.16 0.17  
Year to date precipitation 0.81 1.40  
Snow  
Snow T in 0.40 in 6.00 in (1903)
Month to date snowfall 2.5 1.7  
Since 1 July snowfall 40.5 32.2  
Snow Depth 7.00 in    
Sea Level Pressure  
Sea Level Pressure 30.36 in    
Wind  
Wind Speed 6 mph (NNE)    
Max Wind Speed 17 mph    
Max Gust Speed 20 mph    
Visibility 9 miles    
Events Snow    
T = Trace of Precipitation, MM = Missing Value Source: NWS Daily Summary

Daily Weather History Graph

Daily Weather History Graph

Search for Another Location

Airport or City:

Trip Planner

Search our weather history database for the weather conditions in past years. The results will help you decide how hot, cold, wet, or windy it might be!

Date:

Astronomy

Feb. 04, 2014 Rise Set
Actual Time 7:09 AM CST 5:13 PM CST
Civil Twilight 6:39 AM CST 5:43 PM CST
Nautical Twilight 6:05 AM CST 6:17 PM CST
Astronomical Twilight 5:32 AM CST 6:50 PM CST
Moon 9:37 AM CST (2/4) 11:18 PM CST (2/4)
Length of Visible Light 11h 04m
Length of Day
10h 04m
Waxing Crescent, 29% of the Moon is Illuminated
Feb 4
Waxing Crescent
Feb 6
First Quarter
Feb 14
Full
Feb 22
Last Quarter
Mar 1
New

Hourly Weather History & Observations

Time (CST) Temp. Windchill Dew Point Humidity Pressure Visibility Wind Dir Wind Speed Gust Speed Precip Events Conditions
12:53 AM 8.1 °F -0.5 °F 1.0 °F 73% 30.40 in 10.0 mi South 4.6 mph - N/A   Partly Cloudy
1:53 AM 5.0 °F - -0.0 °F 80% 30.42 in 10.0 mi Calm Calm - N/A   Partly Cloudy
2:53 AM 1.9 °F - -0.9 °F 88% 30.42 in 9.0 mi Calm Calm - N/A   Clear
3:53 AM -0.0 °F - -4.0 °F 83% 30.42 in 8.0 mi Calm Calm - N/A   Clear
4:53 AM 1.9 °F -5.6 °F -2.9 °F 80% 30.42 in 8.0 mi South 3.5 mph - N/A   Clear
5:53 AM 3.9 °F -3.4 °F -0.0 °F 84% 30.43 in 8.0 mi SSW 3.5 mph - N/A   Mostly Cloudy
6:53 AM -0.0 °F - -4.0 °F 83% 30.44 in 8.0 mi Calm Calm - N/A   Mostly Cloudy
7:53 AM -0.0 °F - -4.0 °F 83% 30.46 in 7.0 mi Calm Calm - N/A   Mostly Cloudy
8:53 AM 3.9 °F - -0.0 °F 84% 30.47 in 7.0 mi Calm Calm - N/A   Overcast
9:53 AM 10.0 °F 3.6 °F 3.9 °F 76% 30.45 in 7.0 mi NNE 3.5 mph - N/A   Overcast
10:53 AM 14.0 °F 8.2 °F 5.0 °F 67% 30.43 in 7.0 mi North 3.5 mph - N/A   Overcast
11:53 AM 15.1 °F 9.4 °F 5.0 °F 64% 30.42 in 8.0 mi North 3.5 mph - N/A   Overcast
12:53 PM 15.1 °F 5.2 °F 6.1 °F 68% 30.38 in 9.0 mi NNE 6.9 mph - N/A   Overcast
1:53 PM 17.1 °F 5.8 °F 7.0 °F 65% 30.36 in 9.0 mi NNE 9.2 mph - N/A   Overcast
2:53 PM 17.1 °F 7.6 °F 7.0 °F 65% 30.37 in 10.0 mi NNE 6.9 mph - N/A   Overcast
3:53 PM 17.1 °F 5.0 °F 7.0 °F 65% 30.33 in 10.0 mi NNE 10.4 mph - N/A   Overcast
4:53 PM 17.1 °F 5.0 °F 8.1 °F 68% 30.35 in 10.0 mi NNE 10.4 mph - N/A   Overcast
5:53 PM 16.0 °F 4.4 °F 8.1 °F 71% 30.35 in 10.0 mi NNE 9.2 mph - N/A   Overcast
6:53 PM 15.1 °F 2.5 °F 8.1 °F 74% 30.33 in 9.0 mi NNE 10.4 mph - N/A   Overcast
7:43 PM 16.0 °F 4.4 °F 9.0 °F 74% 30.25 in 9.0 mi North 9.2 mph - N/A   Overcast
7:53 PM 16.0 °F 2.9 °F 9.0 °F 74% 30.30 in 9.0 mi North 11.5 mph - N/A   Overcast
8:10 PM 16.0 °F 2.9 °F 8.1 °F 71% 30.23 in 9.0 mi North 11.5 mph - N/A   Overcast
8:53 PM 16.0 °F 3.6 °F 9.0 °F 74% 30.29 in 10.0 mi North 10.4 mph - N/A   Overcast
9:48 PM 17.6 °F 6.4 °F 8.6 °F 68% 30.22 in 10.0 mi North 9.2 mph - N/A   Overcast
9:53 PM 17.1 °F 4.3 °F 9.0 °F 71% 30.27 in 10.0 mi North 11.5 mph - N/A   Overcast
10:53 PM 18.0 °F 4.8 °F 9.0 °F 68% 30.26 in 9.0 mi North 12.7 mph - 0.00 in Snow Light Snow
11:53 PM 17.1 °F 2.0 °F 10.0 °F 74% 30.25 in 8.0 mi North 16.1 mph - 0.00 in   Overcast